Location: Julian California
(33.0790°N, 116.6010°W)
Time: 14:38:32
(UTC-07:00)

Cosmos 1315 Rocket - Pass Details

Date: 14 June 2018
Orbit: 529 x 570 km, 81.2° (Epoch: 20 August)

Event Time Altitude Azimuth Distance (km) Brightness Sun altitude
Exits shadow 22:32:27 58° 294° (WNW) 640 3.3 -25.1°
Drops below altitude 10° 22:36:15 10° 360° (N) 1,832 6.2 -25.6°
Sets 22:38:28 0° 4° (N) 2,738 7.2 -25.8°
